This demonstration page uses our WeatherBlox Daily Observations layout. Learn more.

Left ArrowRight Arrow

44.8408, -93.29828

Hourly Observations for August 29, 2021

Temp ( °F °C ) Dew Point ( °F °C ) Humidity (%) Winds ( mph kmh ) Pressure ( in mb ) Visibility ( mi km ) Precip ( " mm )
12:14 am 00:14 Cloudy with Nearby Thunderstorms 70 21.1 68 20 93 93 VRB 7 11 29.88 1012 7 11 0.01 0.25
12:24 am 00:24 Cloudy with Strong Thunderstorms 70 21.1 68 20 93 93 undefined N/A 29.90 1013 5 8 0.04 1.02
12:42 am 00:42 Cloudy with Strong Thunderstorms 68 20 66 18.9 93 93 W 14 22 29.94 1014 2 3 0.44 11.18
12:51 am 00:51 Cloudy with Nearby Thunderstorms 68 20 66 19 94 94 W 8 13 29.95 1014 4 6 0.54 13.72
12:53 am 00:53 Cloudy with Nearby Thunderstorms 67 19.4 66 18.9 97 97 W 7 11 29.95 1014 4 6 0.55 13.97
1:37 am 01:37 Cloudy with Heavy Rain 67 19.4 65 18.3 93 93 SE 14 22 29.88 1012 7 11 0.11 2.79
1:53 am 01:53 Cloudy with Light Rain 67 19.4 65 18.3 93 93 SE 18 30 29.84 1011 7 11 0.16 4.06
2:33 am 02:33 Mostly Cloudy with Light Rain 68 20 65 18.3 90 90 WNW 18 30 29.83 1010 10 16 0.01 0.25
2:43 am 02:43 Mostly Cloudy 69 20.6 64 17.8 84 84 W 14 22 29.86 1011 10 16 0.01 0.25
2:53 am 02:53 Mostly Clear 68 20 64 17.8 87 87 W 12 19 29.87 1012 10 16 0.01 0.25
3:53 am 03:53 Cloudy 67 19.4 64 17.8 91 91 SSW 3 6 29.82 1010 10 16 0.00 0.00
4:53 am 04:53 Cloudy 67 19.4 65 18.3 93 93 WSW 8 13 29.83 1010 10 16 0.00 0.00
5:53 am 05:53 Cloudy 67 19.4 64 17.8 91 91 W 10 17 29.86 1011 10 16 0.00 0.00
6:00 am 06:00 Cloudy 67 19.4 65 18.3 93 93 W 10 17 29.85 1011 10 16 0.00 0.00
6:35 am 06:35 Cloudy 67 19.4 65 18.3 93 93 W 10 17 29.87 1012 10 16 0.00 0.00
6:53 am 06:53 Partly Cloudy 67 19.4 65 18.3 93 93 W 9 15 29.89 1012 10 16 0.00 0.00
7:53 am 07:53 Partly Cloudy 68 20 65 18.3 90 90 WSW 9 15 29.91 1013 10 16 0.00 0.00
8:53 am 08:53 Partly Cloudy 69 20.6 64 17.8 84 84 W 13 20 29.91 1013 10 16 0.00 0.00
9:53 am 09:53 Mostly Sunny 73 22.8 63 17.2 71 71 W 10 17 29.93 1014 10 16 0.00 0.00
10:53 am 10:53 Mostly Sunny 75 23.9 60 15.6 60 60 W 12 19 29.95 1014 10 16 0.00 0.00
11:53 am 11:53 Mostly Sunny 77 25 59 15 54 54 W 12 19 29.96 1015 10 16 0.00 0.00
12:53 pm 12:53 Mostly Sunny 78 25.6 59 15 52 52 WNW 15 24 29.96 1015 10 16 0.00 0.00
1:53 pm 13:53 Mostly Sunny 79 26.1 58 14.4 49 49 NW 12 19 29.96 1015 10 16 0.00 0.00
2:53 pm 14:53 Mostly Sunny 80 26.7 57 13.9 45 45 W 16 26 29.95 1014 10 16 0.00 0.00
3:53 pm 15:53 Mostly Sunny 81 27.2 57 13.9 44 44 W 15 24 29.93 1014 10 16 0.00 0.00
4:53 pm 16:53 Mostly Sunny 80 26.7 56 13.3 44 44 NW 13 20 29.93 1014 10 16 0.00 0.00
5:53 pm 17:53 Mostly Sunny 80 26.7 55 12.8 42 42 W 12 19 29.93 1014 10 16 0.00 0.00
6:53 pm 18:53 Mostly Sunny 78 25.6 57 13.9 48 48 WNW 12 19 29.94 1014 10 16 0.00 0.00
7:53 pm 19:53 Sunny 75 23.9 56 13.3 52 52 WNW 7 11 29.95 1014 10 16 0.00 0.00
8:53 pm 20:53 Clear 74 23.3 56 13.3 54 54 W 7 11 29.97 1015 10 16 0.00 0.00
9:53 pm 21:53 Clear 72 22.2 56 13.3 57 57 W 6 9 29.98 1015 10 16 0.00 0.00
10:53 pm 22:53 Clear 70 21.1 57 13.9 64 64 W 7 11 29.98 1015 10 16 0.00 0.00
11:53 pm 23:53 Clear 69 20.6 58 14.4 68 68 WSW 5 7 29.99 1016 10 16 0.00 0.00

Powered by AerisWeather